Flag for Russia Weather past 2 weeks in Rostov-on-Don, Russia

Now
63 °F

Partly cloudy.


Feels Like: 63 °F
Forecast: 64 / 79 °F
Wind: 6 mph from Southwest

Location: Rostov-Na-Donu

Current Time: Jul 1, 2015 at 3:53:17 AM

Latest Report: Jul 1, 2015 at 3:00 AM


Visibility: N/A

Pressure: 29.98 "Hg

Humidity: 94%

Dew point: 61 °F

Location of Rostov-on-DonLocation

Historic Weather in Rostov-on-Don — Graph

°F

Rostov-on-Don temperature yesterday

Maximum temperature yesterday: 75 °F (at 1:30 PM)
Minimum temperature yesterday: 63 °F (at 2:00 AM)
Average temperature yesterday: 69 °F

Past Weeks' High & Low Weather Summary

 TemperatureHumidityPressure
High86 °F (Jun 19, 4:30 PM)100% (Jun 22, 3:30 AM)29.98 "Hg (Jun 22, 3:30 AM)
Low63 °F (Jun 19, 3:00 AM)37% (Jun 16, 4:00 PM)29.62 "Hg (Jun 19, 4:30 PM)
Average73 °F74%29.76 "Hg
* Reported Jun 16 2:00 AM — Jul 1 2:30 AM, Rostov-on-Don, Weather by CustomWeather, © 2015

Note: Actual official high and low records may vary slightly from our data, if they occured in-between our weather recording intervals... More about our weather records

Advertising

Rostov-on-Don weather history for previous 24 hours

 ConditionsComfort  
Time TempWeatherWind HumidityBarometerVisibility
2:30 AM
Wed, Jul 1
63 °FPassing clouds.6 mph88%29.98 "HgN/A
2:00 AM63 °FPassing clouds.3 mph94%29.98 "HgN/A
1:30 AM63 °FClear.3 mph94%29.95 "HgN/A
1:00 AM64 °FPassing clouds.6 mph88%29.95 "HgN/A
12:30 AM64 °FPassing clouds.6 mph88%29.95 "HgN/A
12:00 AM64 °FClear.3 mph88%29.95 "HgN/A
11:30 PM
Tue, Jun 30
66 °FPassing clouds.3 mph83%29.95 "HgN/A
11:00 PM68 °FPassing clouds.3 mph78%29.95 "HgN/A
10:30 PM68 °FPassing clouds.6 mph73%29.95 "HgN/A
10:00 PM68 °FPassing clouds.3 mph78%29.95 "HgN/A
9:30 PM70 °FPassing clouds.6 mph73%29.95 "HgN/A
9:00 PM70 °FScattered clouds.6 mph73%29.95 "HgN/A
8:00 PM72 °FBroken clouds.6 mph69%29.95 "HgN/A
7:30 PM72 °FBroken clouds.6 mph69%29.95 "HgN/A
7:00 PM73 °FBroken clouds.6 mph69%29.95 "HgN/A
6:00 PM75 °FBroken clouds.8 mph65%29.92 "HgN/A
5:30 PM73 °FBroken clouds.8 mph69%29.92 "HgN/A
4:30 PM75 °FBroken clouds.8 mph65%29.92 "HgN/A
4:00 PM75 °FBroken clouds.8 mph61%29.92 "HgN/A
3:30 PM75 °FBroken clouds.8 mph61%29.92 "HgN/A
3:00 PM75 °FBroken clouds.8 mph61%29.92 "HgN/A
2:30 PM75 °FBroken clouds.10 mph65%29.92 "HgN/A
2:00 PM75 °FBroken clouds.6 mph61%29.92 "HgN/A
1:30 PM75 °FBroken clouds.8 mph61%29.92 "HgN/A
1:00 PM73 °FBroken clouds.13 mph65%29.92 "HgN/A
12:30 PM73 °FBroken clouds.8 mph69%29.92 "HgN/A
12:00 PM73 °FBroken clouds.10 mph65%29.92 "HgN/A
11:30 AM73 °FBroken clouds.8 mph69%29.92 "HgN/A
11:00 AM72 °FBroken clouds.8 mph73%29.92 "HgN/A
10:30 AM70 °FBroken clouds.8 mph78%29.92 "HgN/A
10:00 AM70 °FBroken clouds.8 mph78%29.92 "HgN/A
9:30 AM68 °FBroken clouds.8 mph83%29.92 "HgN/A
9:00 AM68 °FBroken clouds.6 mph83%29.92 "HgN/A
8:30 AM66 °FBroken clouds.3 mph88%29.92 "HgN/A
8:00 AM64 °FBroken clouds.6 mph94%29.92 "HgN/A
7:30 AM64 °FBroken clouds.8 mph88%29.92 "HgN/A
7:00 AM64 °FBroken clouds.8 mph88%29.92 "HgN/A
6:30 AM64 °FBroken clouds.8 mph88%29.92 "HgN/A
6:00 AM64 °FBroken clouds.6 mph94%29.92 "HgN/A
5:30 AM64 °FBroken clouds.8 mph88%29.92 "HgN/A
5:00 AM64 °FPartly cloudy.8 mph88%29.92 "HgN/A
4:30 AM63 °FPartly cloudy.6 mph94%29.92 "HgN/A
4:00 AM64 °FPartly cloudy.8 mph88%29.89 "HgN/A
3:30 AM64 °FPartly cloudy.8 mph88%29.92 "HgN/A
3:00 AM64 °FPartly cloudy.6 mph88%29.92 "HgN/A
Weather by CustomWeather, © 2015

See weather overviewHow to use our weather pages